GW6585 Weather Reports


time (UTC)temp
F
wind
direction
speed
knots
gust
knots
rain 1hr
in
rain 24hr
in
rain mn
in
humidity
%
barometer
mb
20260506114628 54 67 0.0 9.6 0.00 0.00 0.00 67 959.9
20260506114127 55 67 0.0 9.6 0.00 0.00 0.00 66 959.8
20260506113626 55 67 0.0 9.6 0.00 0.00 0.00 65 960.0
20260506113125 55 67 0.0 9.6 0.00 0.00 0.00 64 959.5
20260506112108 55 49 0.0 9.6 0.00 0.00 0.00 63 959.6
20260506111607 55 54 0.0 9.6 0.00 0.00 0.00 62 959.6
20260506111106 55 63 0.0 9.6 0.00 0.00 0.00 62 959.2
20260506110605 55 70 0.0 9.6 0.00 0.00 0.00 62 959.6
20260506110104 55 60 0.9 9.6 0.00 0.00 0.00 61 959.2
20260506105603 55 59 1.7 9.6 0.00 0.00 0.00 62 959.4
20260506105102 56 82 0.0 9.6 0.00 0.00 0.00 62 959.5
20260506104601 56 13 0.0 9.6 0.00 0.00 0.00 59 959.3
20260506103544 57 4 0.0 9.6 0.00 0.00 0.00 58 959.0
20260506103043 57 5 0.9 9.6 0.00 0.00 0.00 56 959.2
20260506102541 57 14 0.0 9.6 0.00 0.00 0.00 56 959.2
20260506102040 58 14 0.9 9.6 0.00 0.00 0.00 55 959.4
20260506101539 58 14 0.0 9.6 0.00 0.00 0.00 54 959.3
20260506101038 58 11 0.0 9.6 0.00 0.00 0.00 53 959.2
20260506100021 57 14 1.7 9.6 0.00 0.00 0.00 54 958.7
20260506094448 55 32 0.0 9.6 0.00 0.00 0.00 61 959.0
20260506093947 55 9 0.0 9.6 0.00 0.00 0.00 61 958.8
20260506093446 56 1 0.0 9.6 0.00 0.00 0.00 60 959.0
20260506092945 56 1 0.0 9.6 0.00 0.00 0.00 59 959.0
20260506092444 56 0 0.0 9.6 0.00 0.00 0.00 57 958.8
20260506091943 56 258 0.0 9.6 0.00 0.00 0.00 56 958.9
20260506091442 57 256 0.0 9.6 0.00 0.00 0.00 55 959.1
20260506090941 57 226 0.0 9.6 0.00 0.00 0.00 55 958.9
20260506090440 57 225 0.0 9.6 0.00 0.00 0.00 54 959.0
20260506085939 58 249 0.0 9.6 0.00 0.00 0.00 53 959.2
20260506085438 58 272 0.0 9.6 0.00 0.00 0.00 52 959.2
20260506084937 58 279 0.0 9.6 0.00 0.00 0.00 52 959.2
20260506084436 58 292 0.9 9.6 0.00 0.00 0.00 52 959.1
20260506083419 59 252 0.0 9.6 0.00 0.00 0.00 51 959.1
20260506082402 59 229 0.0 9.6 0.00 0.00 0.00 51 958.8
20260506081901 59 199 0.0 9.6 0.00 0.00 0.00 51 959.2
20260506081400 59 189 0.0 9.6 0.00 0.00 0.00 51 959.2
20260506080859 59 240 0.9 9.6 0.00 0.00 0.00 51 959.2
20260506080358 59 227 0.0 9.6 0.00 0.00 0.00 50 959.4
20260506073337 59 282 0.0 9.6 0.00 0.00 0.00 50 959.4
20260506072321 59 290 0.0 9.6 0.00 0.00 0.00 50 959.3
20260506071820 59 335 0.0 9.6 0.00 0.00 0.00 50 959.3
20260506070803 60 291 0.0 9.6 0.00 0.00 0.00 50 959.3
20260506070302 60 307 0.0 9.6 0.00 0.00 0.00 50 959.4
20260506062239 62 294 0.0 9.6 0.00 0.00 0.13 48 958.9
20260506061738 62 258 0.0 9.6 0.00 0.00 0.13 48 959.2
20260506060721 62 259 0.9 9.6 0.00 0.00 0.13 46 959.2
20260506060220 62 201 0.0 9.6 0.00 0.00 0.13 46 959.1
20260506051155 64 246 0.9 9.6 0.00 0.00 0.13 42 958.8
20260506050655 65 243 0.0 9.6 0.00 0.00 0.13 42 958.9
20260506050153 65 212 0.9 9.6 0.00 0.00 0.13 42 958.7
20260506044650 66 245 0.9 9.6 0.00 0.00 0.13 41 958.8
20260506044149 66 253 2.6 9.6 0.00 0.00 0.13 42 958.5
20260506043649 66 234 0.9 9.6 0.00 0.00 0.13 45 958.2
20260506043148 66 240 1.7 9.6 0.00 0.00 0.13 46 958.4
20260506042131 66 224 2.6 9.6 0.00 0.00 0.13 47 958.3
20260506041630 66 258 3.5 9.6 0.00 0.00 0.13 47 958.4
20260506041129 66 241 3.5 9.6 0.00 0.00 0.13 47 958.2
20260506040628 66 258 1.7 9.6 0.00 0.00 0.13 46 957.9
20260506040127 66 271 0.9 9.6 0.00 0.00 0.13 45 958.2
20260506035626 66 278 1.7 9.6 0.00 0.00 0.13 43 958.1
20260506035126 66 264 0.0 9.6 0.00 0.00 0.13 41 957.9
20260506034625 67 251 0.9 9.6 0.00 0.00 0.13 41 957.8
20260506034123 67 245 0.9 9.6 0.00 0.00 0.13 40 957.5
20260506033622 67 253 1.7 9.6 0.00 0.00 0.13 39 957.6
20260506033121 67 251 0.0 9.6 0.00 0.00 0.13 39 957.6
20260506032104 67 266 0.0 9.6 0.00 0.00 0.13 38 957.3
20260506031603 67 253 0.9 9.6 0.00 0.00 0.13 38 957.3
20260506031102 67 276 0.9 9.6 0.00 0.00 0.13 38 957.3
20260506030602 68 230 0.9 9.6 0.00 0.00 0.13 37 957.3
20260506025600 68 236 1.7 9.6 0.00 0.00 0.13 36 957.0
20260506025100 68 232 2.6 9.6 0.00 0.00 0.13 36 957.2
20260506024558 68 231 0.9 9.6 0.00 0.00 0.13 35 956.9
20260506024057 68 233 1.7 9.6 0.00 0.00 0.13 35 956.7
20260506023557 68 246 0.9 9.6 0.00 0.00 0.13 34 956.7
20260506023057 69 238 0.9 9.6 0.00 0.00 0.13 34 956.7
20260506022040 69 225 0.9 9.6 0.00 0.00 0.13 33 956.5
20260506021539 69 231 2.6 9.6 0.00 0.00 0.13 32 956.3
20260506020523 70 220 1.7 9.6 0.00 0.00 0.13 31 956.2
20260506020022 70 222 2.6 9.6 0.00 0.00 0.13 32 956.4
20260506015521 70 244 2.6 9.6 0.00 0.00 0.13 32 956.2
20260506015020 70 236 3.5 11.3 0.00 0.00 0.13 31 956.1
20260506014519 71 230 2.6 11.3 0.00 0.00 0.13 32 956.2
20260506013504 71 235 3.5 12.2 0.00 0.00 0.13 32 956.1
20260506013003 72 236 2.6 12.2 0.00 0.00 0.13 33 956.1
20260506012502 72 237 4.3 12.2 0.00 0.00 0.13 32 956.1
20260506012000 72 234 4.3 11.3 0.00 0.00 0.13 32 956.1
20260506011500 72 237 3.5 10.4 0.00 0.00 0.13 32 956.1
20260506010959 73 257 4.3 10.4 0.00 0.00 0.13 32 956.1
20260506010458 73 232 2.6 13.0 0.00 0.00 0.13 31 955.9
20260506005957 73 238 5.2 13.0 0.00 0.00 0.13 30 955.8
20260506005456 74 232 4.3 10.4 0.00 0.00 0.13 29 955.8
20260506004955 74 218 2.6 10.4 0.00 0.00 0.13 30 955.3
20260506004454 74 240 3.5 10.4 0.00 0.00 0.13 29 955.8
20260506003437 75 229 4.3 10.4 0.00 0.00 0.13 27 955.9
20260506002936 75 224 2.6 10.4 0.00 0.00 0.13 28 955.6
20260506002435 75 235 2.6 10.4 0.00 0.00 0.13 28 955.8
20260506001934 75 222 3.5 10.4 0.00 0.00 0.13 27 955.6
20260506000917 76 236 3.5 10.4 0.00 0.00 0.13 27 955.4
20260506000416 76 225 2.6 10.4 0.00 0.00 0.13 27 955.5
20260505235915 76 224 3.5 10.4 0.00 0.00 0.13 25 955.5
20260505235414 75 220 3.5 10.4 0.00 0.00 0.13 26 955.6
20260505234913 76 230 3.5 10.4 0.00 0.00 0.13 27 955.6
20260505234412 76 217 1.7 10.4 0.00 0.00 0.13 27 955.3
20260505233911 76 215 2.6 10.4 0.00 0.00 0.13 25 955.5
20260505233410 76 232 3.5 10.4 0.00 0.00 0.13 26 955.4
20260505232909 76 220 2.6 10.4 0.00 0.00 0.13 26 955.5
20260505232408 76 220 2.6 11.3 0.00 0.00 0.13 27 955.3
20260505231351 76 238 3.5 10.4 0.00 0.00 0.13 26 955.5
20260505230850 76 225 4.3 10.4 0.00 0.00 0.13 26 955.4
20260505230349 77 240 2.6 9.6 0.00 0.00 0.13 26 955.4
20260505225332 75 210 3.5 9.6 0.00 0.00 0.13 29 955.5
20260505224315 75 218 2.6 9.6 0.00 0.00 0.13 30 955.9
20260505223814 74 210 2.6 9.6 0.00 0.00 0.13 30 955.5
20260505223313 76 209 1.7 9.6 0.00 0.00 0.13 30 956.1
20260505222812 76 276 1.7 9.6 0.00 0.00 0.13 31 955.9
20260505222311 75 235 2.6 9.6 0.00 0.00 0.13 30 955.8
20260505221810 75 209 3.5 9.6 0.00 0.00 0.13 30 955.7
20260505221309 75 229 3.5 9.6 0.00 0.00 0.13 31 955.8
20260505220808 76 213 2.6 9.6 0.00 0.00 0.13 30 956.2
20260505220307 76 196 3.5 9.6 0.00 0.00 0.13 29 956.2
20260505215806 77 225 2.6 9.6 0.00 0.00 0.13 29 956.3
20260505215305 76 230 3.5 9.6 0.00 0.00 0.13 28 956.0
20260505214804 76 229 2.6 9.6 0.00 0.00 0.13 30 956.3
20260505214303 76 221 3.5 10.4 0.00 0.00 0.13 29 956.3
20260505213802 76 217 3.5 10.4 0.00 0.00 0.13 30 956.6
20260505213301 76 223 4.3 10.4 0.00 0.00 0.13 29 956.3
20260505212244 76 224 3.5 10.4 0.00 0.00 0.13 28 956.6
20260505211743 76 221 3.5 11.3 0.00 0.00 0.13 27 956.3
20260505211242 76 218 4.3 11.3 0.00 0.00 0.13 28 956.5
20260505210741 76 210 4.3 11.3 0.00 0.00 0.13 27 956.5
20260505204652 76 221 4.3 11.3 0.00 0.00 0.13 30 956.8
20260505204151 76 218 4.3 10.4 0.00 0.00 0.13 32 956.9
20260505203650 76 210 4.3 10.4 0.00 0.00 0.13 33 956.4
20260505203149 76 219 4.3 10.4 0.00 0.00 0.13 30 956.9
20260505202648 76 224 4.3 10.4 0.00 0.00 0.13 31 956.7
20260505202147 76 223 5.2 10.4 0.00 0.00 0.13 31 956.7
20260505201130 74 232 2.6 10.4 0.00 0.00 0.13 34 956.9
20260505200629 76 228 3.5 10.4 0.00 0.00 0.13 36 957.1
20260505200128 74 222 3.5 10.4 0.00 0.00 0.13 36 956.9
20260505195627 75 230 4.3 10.4 0.00 0.00 0.13 36 956.7
20260505194610 73 225 2.6 10.4 0.00 0.00 0.13 43 957.1
20260505194109 71 330 0.9 10.4 0.00 0.00 0.13 52 957.2
20260505192536 70 335 1.7 10.4 0.00 0.00 0.13 53 957.3
20260505192035 70 11 0.0 10.4 0.00 0.00 0.13 53 957.3
20260505191534 70 0 1.7 10.4 0.00 0.00 0.13 51 957.1
20260505191033 71 314 0.9 10.4 0.00 0.00 0.13 50 957.5
20260505190532 71 338 0.9 10.4 0.00 0.00 0.13 51 957.4
20260505190031 70 60 0.9 10.4 0.00 0.00 0.13 52 957.1
20260505185014 70 11 1.7 10.4 0.00 0.00 0.13 53 957.5
20260505183957 68 15 1.7 10.4 0.00 0.00 0.13 55 957.7
20260505182940 69 32 0.0 10.4 0.00 0.00 0.13 57 957.7
20260505182439 69 13 0.0 10.4 0.00 0.00 0.13 54 958.0
20260505181422 68 217 0.9 10.4 0.00 0.00 0.13 57 958.1
20260505180921 68 225 0.0 10.4 0.00 0.00 0.13 58 958.0
20260505180420 68 210 0.9 10.4 0.00 0.00 0.13 59 958.4
20260505175919 68 239 0.0 10.4 0.00 0.00 0.13 57 958.2
20260505175418 68 277 0.0 10.4 0.00 0.00 0.13 58 958.4
20260505174917 69 205 0.0 10.4 0.00 0.00 0.13 57 958.2
20260505174416 69 234 0.9 10.4 0.00 0.00 0.13 57 958.3
20260505173915 68 259 0.0 10.4 0.00 0.00 0.13 62 958.2
20260505173414 68 130 0.9 10.4 0.00 0.00 0.13 59 958.2
20260505172913 68 186 0.0 10.4 0.00 0.00 0.13 60 958.2
20260505172412 67 22 2.6 10.4 0.00 0.00 0.13 61 958.1
20260505171911 67 311 0.9 10.4 0.00 0.00 0.13 59 958.4
20260505171410 68 335 1.7 10.4 0.00 0.00 0.13 60 958.4
20260505170909 68 37 0.9 10.4 0.00 0.00 0.13 61 958.3
20260505170408 67 216 0.9 10.4 0.00 0.00 0.13 61 958.4
20260505165907 67 233 0.9 10.4 0.00 0.00 0.13 63 958.3
20260505165406 67 220 0.0 10.4 0.00 0.00 0.13 62 958.2
20260505164905 67 151 0.0 10.4 0.00 0.00 0.13 65 958.2
20260505163848 66 82 0.0 10.4 0.00 0.00 0.13 71 958.1
20260505163347 66 87 0.0 10.4 0.00 0.00 0.13 74 958.1
20260505162846 65 37 0.0 10.4 0.00 0.00 0.13 75 958.0
20260505162345 64 289 0.0 10.4 0.00 0.00 0.13 79 958.3
20260505161844 63 287 0.0 10.4 0.00 0.00 0.13 79 958.2
20260505161343 64 347 0.0 10.4 0.00 0.00 0.13 80 958.3
20260505160842 64 347 0.0 10.4 0.00 0.00 0.13 80 958.4
20260505160341 63 347 0.0 10.4 0.00 0.00 0.13 80 958.5
20260505153306 63 221 0.0 10.4 0.00 0.00 0.13 79 958.0
20260505152805 63 227 0.0 10.4 0.00 0.00 0.13 77 957.8
20260505152305 62 251 0.0 10.4 0.00 0.00 0.13 79 957.8
20260505151246 62 238 0.0 10.4 0.00 0.00 0.13 82 958.1
20260505150746 62 238 0.0 10.4 0.00 0.00 0.13 84 957.8
20260505150245 62 238 0.0 10.4 0.00 0.00 0.13 84 957.7
20260505140217 60 97 0.0 10.4 0.00 0.00 0.13 87 957.2
20260505130135 59 63 0.9 10.4 0.01 0.00 0.13 92 956.9
20260505124632 59 81 0.9 10.4 0.01 0.00 0.13 91 956.6
20260505124131 59 93 0.9 10.4 0.02 0.00 0.13 91 956.6
20260505123631 59 102 0.9 10.4 0.02 0.00 0.13 91 956.8
20260505123130 59 89 0.0 10.4 0.02 0.00 0.13 91 956.7
20260505122629 59 89 0.0 10.4 0.02 0.00 0.13 90 956.5
20260505122128 59 89 0.0 10.4 0.02 0.00 0.13 90 956.5
20260505121627 59 89 0.0 10.4 0.02 0.00 0.13 90 956.7
20260505121126 59 89 0.0 10.4 0.01 0.00 0.11 90 956.5
20260505120625 59 89 0.0 10.4 0.01 0.00 0.11 89 956.3
20260505120124 59 89 0.0 10.4 0.01 0.00 0.11 89 956.5
20260505115623 59 89 0.0 10.4 0.01 0.00 0.11 88 956.4